| time (UTC) | temp F | wind direction | speed knots | gust knots | rain 1hr in | rain 24hr in | rain mn in | humidity % | barometer mb |
| 20260905194751 | 55 | 0.0 | 0.0 | 0.00 | 0.00 | 0.00 | 80 | 1022.5 | |
| 20260905193750 | 55 | 0.0 | 0.0 | 0.00 | 0.00 | 0.00 | 82 | 1022.3 | |
| 20260905192750 | 54 | 0.0 | 0.0 | 0.00 | 0.00 | 0.00 | 85 | 1022.2 | |
| 20260905191751 | 54 | 0.0 | 0.0 | 0.00 | 0.00 | 0.00 | 92 | 1021.8 | |
| 20260905190750 | 55 | 0.0 | 0.0 | 0.00 | 0.00 | 0.00 | 82 | 1021.9 | |
| 20260905185750 | 55 | 0.0 | 0.0 | 0.00 | 0.00 | 0.00 | 79 | 1021.9 | |
| 20260905184750 | 55 | 0.0 | 0.0 | 0.00 | 0.00 | 0.00 | 77 | 1021.6 | |
| 20260905183751 | 54 | 0.0 | 0.0 | 0.00 | 0.00 | 0.00 | 81 | 1021.2 | |
| 20260905182751 | 53 | 0.0 | 0.0 | 0.00 | 0.00 | 0.00 | 86 | 1021.2 | |
| 20260905181751 | 53 | 0.0 | 0.0 | 0.00 | 0.00 | 0.00 | 86 | 1021.3 | |
| 20260905180750 | 53 | 0.0 | 0.0 | 0.00 | 0.00 | 0.00 | 86 | 1021.1 | |
| 20260905175750 | 53 | 0.0 | 0.0 | 0.00 | 0.00 | 0.00 | 85 | 1020.9 | |
| 20260905174750 | 53 | 0.0 | 0.0 | 0.00 | 0.00 | 0.00 | 83 | 1020.9 | |
| 20260905173750 | 53 | 0.0 | 0.0 | 0.00 | 0.00 | 0.00 | 83 | 1020.9 | |
| 20260905172750 | 54 | 0.0 | 0.0 | 0.00 | 0.00 | 0.00 | 79 | 1020.7 | |
| 20260905171750 | 55 | 0.0 | 0.0 | 0.00 | 0.00 | 0.00 | 77 | 1020.7 | |
| 20260905170750 | 56 | 0.0 | 0.0 | 0.00 | 0.00 | 0.00 | 74 | 1020.5 | |
| 20260905165750 | 57 | 0.0 | 0.0 | 0.00 | 0.00 | 0.00 | 73 | 1020.5 | |
| 20260905164750 | 57 | 0.0 | 0.0 | 0.00 | 0.00 | 0.00 | 68 | 1020.3 | |
| 20260905163750 | 58 | 0.0 | 0.0 | 0.00 | 0.00 | 0.00 | 65 | 1020.2 | |
| 20260905162750 | 60 | 0.0 | 0.0 | 0.00 | 0.00 | 0.00 | 61 | 1020.1 | |
| 20260905161750 | 61 | 0.0 | 0.0 | 0.00 | 0.00 | 0.00 | 54 | 1020.1 | |
| 20260905160750 | 61 | 0.0 | 0.0 | 0.00 | 0.00 | 0.00 | 56 | 1020.0 | |
| 20260905155751 | 61 | 0.0 | 0.0 | 0.00 | 0.00 | 0.00 | 54 | 1019.9 | |
| 20260905154751 | 61 | 0.0 | 0.0 | 0.00 | 0.00 | 0.00 | 60 | 1019.7 | |
| 20260905153751 | 61 | 0.0 | 0.0 | 0.00 | 0.00 | 0.00 | 59 | 1019.6 | |
| 20260905152750 | 62 | 0.0 | 0.0 | 0.00 | 0.00 | 0.00 | 56 | 1019.6 | |
| 20260905151756 | 63 | 0.0 | 0.0 | 0.00 | 0.00 | 0.00 | 55 | 1019.7 | |
| 20260905150750 | 63 | 0.0 | 0.0 | 0.00 | 0.00 | 0.00 | 52 | 1019.5 | |
| 20260905145750 | 63 | 0.0 | 0.0 | 0.00 | 0.00 | 0.00 | 52 | 1019.5 | |
| 20260905144750 | 63 | 0.0 | 0.0 | 0.00 | 0.00 | 0.00 | 52 | 1019.4 | |
| 20260905143751 | 63 | 0.0 | 0.0 | 0.00 | 0.00 | 0.00 | 54 | 1019.6 | |
| 20260905142750 | 63 | 0.0 | 0.0 | 0.00 | 0.00 | 0.00 | 50 | 1019.5 | |
| 20260905141752 | 63 | 0.0 | 0.0 | 0.00 | 0.00 | 0.00 | 58 | 1019.7 | |
| 20260905140750 | 63 | 0.0 | 0.0 | 0.00 | 0.00 | 0.00 | 53 | 1019.5 | |
| 20260905135751 | 66 | 0.0 | 0.0 | 0.00 | 0.00 | 0.00 | 48 | 1019.5 | |
| 20260905134750 | 66 | 0.0 | 0.0 | 0.00 | 0.00 | 0.00 | 49 | 1019.4 | |
| 20260905133752 | 66 | 0.0 | 0.0 | 0.00 | 0.00 | 0.00 | 52 | 1019.3 | |
| 20260905132750 | 66 | 0.0 | 0.0 | 0.00 | 0.00 | 0.00 | 50 | 1019.2 | |
| 20260905131750 | 63 | 0.0 | 0.0 | 0.00 | 0.00 | 0.00 | 55 | 1019.4 | |
| 20260905130750 | 63 | 0.0 | 0.0 | 0.00 | 0.00 | 0.00 | 63 | 1019.4 | |
| 20260905125751 | 63 | 0.0 | 0.0 | 0.00 | 0.00 | 0.00 | 56 | 1019.4 | |
| 20260905124750 | 63 | 0.0 | 0.0 | 0.00 | 0.00 | 0.00 | 58 | 1019.4 | |
| 20260905123750 | 63 | 0.0 | 0.0 | 0.00 | 0.00 | 0.00 | 54 | 1019.4 | |
| 20260905122750 | 64 | 0.0 | 0.0 | 0.00 | 0.00 | 0.00 | 53 | 1019.4 | |
| 20260905121750 | 63 | 0.0 | 0.0 | 0.00 | 0.00 | 0.00 | 55 | 1019.6 | |
| 20260905120751 | 64 | 0.0 | 0.0 | 0.00 | 0.00 | 0.00 | 58 | 1019.7 | |
| 20260905115752 | 65 | 0.0 | 0.0 | 0.00 | 0.00 | 0.00 | 54 | 1019.7 | |
| 20260905114751 | 64 | 0.0 | 0.0 | 0.00 | 0.00 | 0.00 | 53 | 1019.8 | |
| 20260905113750 | 64 | 0.0 | 0.0 | 0.00 | 0.00 | 0.00 | 55 | 1019.8 | |
| 20260905112750 | 63 | 0.0 | 0.0 | 0.00 | 0.00 | 0.00 | 56 | 1019.7 | |
| 20260905111750 | 63 | 0.0 | 0.0 | 0.00 | 0.00 | 0.00 | 61 | 1019.9 | |
| 20260905110750 | 62 | 0.0 | 0.0 | 0.00 | 0.00 | 0.00 | 60 | 1019.9 | |
| 20260905105750 | 62 | 0.0 | 0.0 | 0.00 | 0.00 | 0.00 | 63 | 1019.8 | |
| 20260905104750 | 62 | 0.0 | 0.0 | 0.00 | 0.00 | 0.00 | 61 | 1019.8 | |
| 20260905103750 | 61 | 0.0 | 0.0 | 0.00 | 0.00 | 0.00 | 59 | 1019.8 | |
| 20260905102750 | 63 | 0.0 | 0.0 | 0.00 | 0.00 | 0.00 | 57 | 1019.6 | |
| 20260905101751 | 62 | 0.0 | 0.0 | 0.00 | 0.00 | 0.00 | 60 | 1019.5 | |
| 20260905100750 | 62 | 0.0 | 0.0 | 0.00 | 0.00 | 0.00 | 64 | 1019.5 | |
| 20260905095751 | 62 | 0.0 | 0.0 | 0.00 | 0.00 | 0.00 | 63 | 1019.3 | |
| 20260905094751 | 62 | 0.0 | 0.0 | 0.00 | 0.00 | 0.00 | 65 | 1019.3 | |
| 20260905093750 | 61 | 0.0 | 0.0 | 0.00 | 0.00 | 0.00 | 69 | 1019.4 | |
| 20260905092753 | 61 | 0.0 | 0.0 | 0.00 | 0.00 | 0.00 | 73 | 1019.3 | |
| 20260905091748 | 60 | 0.0 | 0.0 | 0.00 | 0.00 | 0.00 | 70 | 1019.3 | |
| 20260905090748 | 59 | 0.0 | 0.0 | 0.00 | 0.00 | 0.00 | 74 | 1019.3 | |
| 20260905085749 | 59 | 0.0 | 0.0 | 0.00 | 0.00 | 0.00 | 77 | 1019.5 | |
| 20260905084748 | 59 | 0.0 | 0.0 | 0.00 | 0.00 | 0.00 | 74 | 1019.3 | |
| 20260905083748 | 59 | 0.0 | 0.0 | 0.00 | 0.00 | 0.00 | 77 | 1019.2 | |
| 20260905082748 | 58 | 0.0 | 0.0 | 0.00 | 0.00 | 0.00 | 85 | 1019.1 | |
| 20260905081748 | 58 | 0.0 | 0.0 | 0.00 | 0.00 | 0.00 | 84 | 1018.9 | |
| 20260905080748 | 57 | 0.0 | 0.0 | 0.00 | 0.00 | 0.00 | 83 | 1018.9 | |
| 20260905075748 | 57 | 0.0 | 0.0 | 0.00 | 0.00 | 0.00 | 90 | 1019.0 | |
| 20260905074748 | 56 | 0.0 | 0.0 | 0.00 | 0.00 | 0.00 | 89 | 1018.8 | |
| 20260905073748 | 56 | 0.0 | 0.0 | 0.00 | 0.00 | 0.00 | 98 | 1018.8 | |
| 20260905072748 | 56 | 0.0 | 0.0 | 0.00 | 0.00 | 0.00 | 97 | 1018.7 | |
| 20260905071748 | 56 | 0.0 | 0.0 | 0.00 | 0.00 | 0.00 | 94 | 1018.8 | |
| 20260905070748 | 56 | 0.0 | 0.0 | 0.00 | 0.00 | 0.00 | 92 | 1018.7 | |
| 20260905065748 | 56 | 0.0 | 0.0 | 0.00 | 0.00 | 0.00 | 10 | 1018.7 | |
| 20260905064748 | 55 | 0.0 | 0.0 | 0.00 | 0.00 | 0.00 | 10 | 1018.6 | |
| 20260905063748 | 55 | 0.0 | 0.0 | 0.00 | 0.00 | 0.00 | 10 | 1018.5 | |
| 20260905062748 | 55 | 0.0 | 0.0 | 0.00 | 0.00 | 0.00 | 10 | 1018.5 | |
| 20260905061748 | 54 | 0.0 | 0.0 | 0.00 | 0.00 | 0.00 | 10 | 1018.4 | |
| 20260905060748 | 54 | 0.0 | 0.0 | 0.00 | 0.00 | 0.00 | 10 | 1018.4 | |
| 20260905055748 | 54 | 0.0 | 0.0 | 0.00 | 0.00 | 0.00 | 10 | 1018.2 | |
| 20260905054748 | 54 | 0.0 | 0.0 | 0.00 | 0.00 | 0.00 | 10 | 1018.1 | |
| 20260905053748 | 54 | 0.0 | 0.0 | 0.00 | 0.00 | 0.00 | 10 | 1018.0 | |
| 20260905052748 | 54 | 0.0 | 0.0 | 0.00 | 0.00 | 0.00 | 10 | 1017.8 | |
| 20260905051748 | 54 | 0.0 | 0.0 | 0.00 | 0.00 | 0.00 | 10 | 1017.6 | |
| 20260905050748 | 54 | 0.0 | 0.0 | 0.00 | 0.00 | 0.00 | 10 | 1017.6 | |
| 20260905045748 | 54 | 0.0 | 0.0 | 0.00 | 0.00 | 0.00 | 10 | 1017.2 | |
| 20260905044748 | 54 | 0.0 | 0.0 | 0.00 | 0.00 | 0.00 | 10 | 1017.1 | |
| 20260905043748 | 54 | 0.0 | 0.0 | 0.00 | 0.00 | 0.00 | 10 | 1017.2 | |
| 20260905042748 | 54 | 0.0 | 0.0 | 0.00 | 0.00 | 0.00 | 10 | 1017.1 | |
| 20260905041748 | 54 | 0.0 | 0.0 | 0.00 | 0.00 | 0.00 | 10 | 1017.1 | |
| 20260905040748 | 54 | 0.0 | 0.0 | 0.00 | 0.00 | 0.00 | 10 | 1017.0 | |
| 20260905035748 | 54 | 0.0 | 0.0 | 0.00 | 0.00 | 0.00 | 10 | 1016.7 | |
| 20260905034749 | 54 | 0.0 | 0.0 | 0.00 | 0.00 | 0.00 | 10 | 1017.0 | |
| 20260905033749 | 54 | 0.0 | 0.0 | 0.00 | 0.00 | 0.00 | 10 | 1016.8 | |
| 20260905032749 | 54 | 0.0 | 0.0 | 0.00 | 0.00 | 0.00 | 10 | 1016.8 | |
| 20260905031749 | 54 | 0.0 | 0.0 | 0.00 | 0.00 | 0.00 | 10 | 1016.7 | |
| 20260905030749 | 53 | 0.0 | 0.0 | 0.00 | 0.00 | 0.00 | 10 | 1016.6 | |
| 20260905025749 | 53 | 0.0 | 0.0 | 0.00 | 0.00 | 0.00 | 10 | 1016.7 | |
| 20260905024749 | 53 | 0.0 | 0.0 | 0.00 | 0.00 | 0.00 | 10 | 1016.7 | |
| 20260905023749 | 53 | 0.0 | 0.0 | 0.00 | 0.00 | 0.00 | 10 | 1015.9 | |
| 20260905022749 | 53 | 0.0 | 0.0 | 0.00 | 0.00 | 0.00 | 10 | 1016.4 | |
| 20260905021749 | 53 | 0.0 | 0.0 | 0.00 | 0.00 | 0.00 | 10 | 1016.4 | |
| 20260905020749 | 53 | 0.0 | 0.0 | 0.00 | 0.00 | 0.00 | 10 | 1015.8 | |
| 20260905015749 | 54 | 0.0 | 0.0 | 0.00 | 0.00 | 0.00 | 10 | 1015.7 | |
| 20260905014749 | 54 | 0.0 | 0.0 | 0.00 | 0.00 | 0.00 | 10 | 1015.5 | |
| 20260905013749 | 54 | 0.0 | 0.0 | 0.00 | 0.00 | 0.00 | 10 | 1015.1 | |
| 20260905012749 | 54 | 0.0 | 0.0 | 0.00 | 0.00 | 0.00 | 10 | 1015.4 | |
| 20260905011749 | 54 | 0.0 | 0.0 | 0.00 | 0.00 | 0.00 | 10 | 1015.4 | |
| 20260905010749 | 54 | 0.0 | 0.0 | 0.00 | 0.00 | 0.00 | 10 | 1015.5 | |
| 20260905005749 | 55 | 0.0 | 0.0 | 0.00 | 0.00 | 0.00 | 10 | 1015.5 | |
| 20260905004749 | 55 | 0.0 | 0.0 | 0.00 | 0.00 | 0.00 | 10 | 1015.4 | |
| 20260905003749 | 56 | 0.0 | 0.0 | 0.00 | 0.00 | 0.00 | 10 | 1015.5 | |
| 20260905002749 | 56 | 0.0 | 0.0 | 0.00 | 0.00 | 0.00 | 10 | 1015.5 | |
| 20260905001749 | 56 | 0.0 | 0.0 | 0.00 | 0.00 | 0.00 | 10 | 1015.2 | |
| 20260905000749 | 56 | 0.0 | 0.0 | 0.00 | 0.00 | 0.00 | 10 | 1015.2 | |
| 20260904235749 | 57 | 0.0 | 0.0 | 0.00 | 0.00 | 0.00 | 10 | 1015.2 | |
| 20260904234749 | 57 | 0.0 | 0.0 | 0.00 | 0.00 | 0.00 | 10 | 1015.4 | |
| 20260904233749 | 57 | 0.0 | 0.0 | 0.00 | 0.00 | 0.00 | 10 | 1015.3 | |
| 20260904232749 | 58 | 0.0 | 0.0 | 0.00 | 0.00 | 0.00 | 10 | 1015.0 | |
| 20260904231749 | 58 | 0.0 | 0.0 | 0.00 | 0.00 | 0.00 | 10 | 1014.2 | |
| 20260904230749 | 58 | 0.0 | 0.0 | 0.00 | 0.00 | 0.00 | 10 | 1014.3 | |
| 20260904225749 | 58 | 0.0 | 0.0 | 0.00 | 0.00 | 0.00 | 10 | 1014.4 | |
| 20260904224749 | 59 | 0.0 | 0.0 | 0.00 | 0.00 | 0.00 | 99 | 1013.7 | |
| 20260904223749 | 60 | 0.0 | 0.0 | 0.00 | 0.00 | 0.00 | 94 | 1014.1 | |
| 20260904222749 | 61 | 0.0 | 0.0 | 0.00 | 0.00 | 0.00 | 85 | 1013.5 | |
| 20260904221749 | 61 | 0.0 | 0.0 | 0.00 | 0.00 | 0.00 | 80 | 1013.7 | |
| 20260904220749 | 62 | 0.0 | 0.0 | 0.00 | 0.00 | 0.00 | 81 | 1014.0 | |
| 20260904215749 | 61 | 0.0 | 0.0 | 0.00 | 0.00 | 0.00 | 86 | 1014.0 | |
| 20260904214749 | 61 | 0.0 | 0.0 | 0.00 | 0.00 | 0.00 | 85 | 1013.7 | |
| 20260904213749 | 60 | 0.0 | 0.0 | 0.00 | 0.00 | 0.00 | 97 | 1013.5 | |
| 20260904212752 | 60 | 0.0 | 0.0 | 0.00 | 0.00 | 0.00 | 96 | 1013.0 | |
| 20260904211747 | 60 | 0.0 | 0.0 | 0.00 | 0.00 | 0.00 | 95 | 1012.8 | |
| 20260904210747 | 60 | 0.0 | 0.0 | 0.00 | 0.00 | 0.00 | 92 | 1012.6 | |
| 20260904205747 | 60 | 0.0 | 0.0 | 0.00 | 0.00 | 0.00 | 99 | 1012.7 | |
| 20260904204747 | 61 | 0.0 | 0.0 | 0.00 | 0.00 | 0.00 | 10 | 1012.6 | |
| 20260904203748 | 61 | 0.0 | 0.0 | 0.00 | 0.00 | 0.00 | 10 | 1012.3 | |
| 20260904202747 | 61 | 0.0 | 0.0 | 0.00 | 0.00 | 0.00 | 10 | 1012.7 | |
| 20260904201747 | 61 | 0.0 | 0.0 | 0.00 | 0.00 | 0.00 | 10 | 1012.7 | |
| 20260904200747 | 61 | 0.0 | 0.0 | 0.00 | 0.00 | 0.00 | 10 | 1012.7 | |
| 20260904195748 | 61 | 0.0 | 0.0 | 0.00 | 0.00 | 0.00 | 10 | 1012.7 |